If you wish to contribute or participate in the discussions about articles you are invited to join SKYbrary as a registered user

 Actions

Capitán FAP Renán Elías Olivera International Airport

From SKYbrary Wiki

SPSO
Airport
ICAO: SPSO – IATA: PIO
Summary
Name Capitán FAP Renán Elías Olivera International Airport
Region South America and Caribbean
Territory Peru PE.gif
Location Pisco, Ica
Serving Pisco
Elevation 11.887 m
39 ft
39 ft11.887 m
Type medium airport
Coordinates 13° 44' 41.51" S, 76° 13' 13.02" W
Runways
Designator Length Width Surface ROPS
4/22 3020 m9,908.136 ft
45 m147.638 ft
ASP /


METAR
Observation SPSO 140400Z 21008KT 9999 OVC020 19/17 Q1015 RMK PP000
Station Pisco
Date/Time 14 November 2019 04:00:00
Wind direction 210°
Wind speed 08 kts
Lowest cloud amount overcast
Temperature 19°C
Dew point 17°C
Humidity 88%
QNH 1015 hPa
Weather condition n/a

airport serving Pisco, an oceanside city in the Ica Region of Peru. It is used by the Peruvian Army, but it can be also used by civil aircraft.

Climatology

Warm Desert climate (Köppen climate classification BWh).

Maps

Terrain

Loading map...

Airport Layout

Loading map...


Accidents & Serious Incidents at or in vicinity of SPSO

None on SKYbrary